Home > Weather > Sapporo > Past weeks

Flag for Japan Weather for the Past 2 Weeks in Sapporo, Japan

Now
37 °F

Chilly.


Feels Like: 29 °F
Forecast: 36 / 44 °F
Wind: 12 mph from Southeast

Location: Sapporo

Current Time: Feb 12, 2016 at 9:11:37 PM

Latest Report: Feb 12, 2016 at 8:00 PM


Visibility: N/A

Pressure: 30.20 "Hg

Humidity: 79%

Dew point: 31 °F

Location of SapporoLocation

Historic Weather in Sapporo — Graph

°F

Sapporo Temperature Yesterday

Maximum temperature yesterday: 33 °F (at 1:00 PM)
Minimum temperature yesterday: 24 °F (at 11:00 PM)
Average temperature yesterday: 29 °F

High & Low Weather Summary for the Past Weeks

 TemperatureHumidityPressure
High40 °F (Feb 9, 1:00 PM)91% (Feb 10, 3:00 AM)30.50 "Hg (Feb 10, 3:00 AM)
Low18 °F (Feb 7, 3:00 AM)35% (Feb 1, 11:00 AM)29.56 "Hg (Feb 9, 3:00 PM)
Average26 °F62%30.07 "Hg
* Reported Jan 28 7:00 PM — Feb 12 7:00 PM, Sapporo, Weather by CustomWeather, © 2016

Note: Actual official high and low records may vary slightly from our data, if they occured in-between our weather recording intervals... More about our weather records

Advertising

Sapporo Weather History for the Previous 24 Hours

 ConditionsComfort  
Time TempWeatherWind HumidityBarometerVisibility
7:00 PM
Fri, Feb 12
37 °FChilly.12 mph74%30.21 "HgN/A
6:00 PM37 °FOvercast.14 mph75%30.24 "Hg12 mi
5:00 PM38 °FChilly.12 mph73%30.25 "HgN/A
4:00 PM39 °FChilly.14 mph68%30.25 "HgN/A
3:00 PM39 °FOvercast.15 mph63%30.27 "Hg12 mi
2:00 PM39 °FChilly.9 mph62%30.28 "HgN/A
1:00 PM39 °FChilly.12 mph61%30.29 "HgN/A
12:00 PM38 °FOvercast.9 mph60%30.31 "Hg12 mi
5:00 AM21 °FCold.1 mph72%30.45 "HgN/A
4:00 AM22 °FCold.5 mph71%30.46 "HgN/A
3:00 AM22 °FPassing clouds.3 mph70%30.47 "Hg12 mi
2:00 AM22 °FCold.3 mph70%30.47 "HgN/A
1:00 AM22 °FCold.3 mph70%30.49 "HgN/A
12:00 AM23 °FCold.3 mph70%30.49 "HgN/A
11:00 PM
Thu, Feb 11
24 °FCold.2 mph67%30.50 "HgN/A
10:00 PM25 °FCold.3 mph69%30.49 "HgN/A
9:00 PM26 °FPassing clouds.3 mph69%30.50 "Hg12 mi
Weather by CustomWeather, © 2016

See weather overviewHow to use our weather pages